Weather History for KCAE - June, 2013

Change the Weather History Date:

Tuesday, June 18, 2013

  Actual Average Record
Temperature  
Mean Temperature 80 °F 80 °F  
Max Temperature 88 °F 91 °F 103 °F (1970)
Min Temperature 71 °F 69 °F 55 °F (1961)
Degree Days  
Heating Degree Days 0 0  
Month to date heating degree days 0 0  
Since 1 June heating degree days 0 0  
Since 1 July heating degree days 2261 2551  
Cooling Degree Days 15 15  
Month to date cooling degree days 252 235  
Year to date cooling degree days 572 556  
Since 1 June cooling degree days 252 235  
Growing Degree Days 30 (Base 50)    
Moisture  
Dew Point 71 °F    
Average Humidity 78    
Maximum Humidity 93    
Minimum Humidity 63    
Precipitation  
Precipitation 0.03 in 0.17 in 3.16 in (2003)
Month to date precipitation 4.06 2.75  
Year to date precipitation 22.68 19.26  
Sea Level Pressure  
Sea Level Pressure 29.91 in    
Wind  
Wind Speed 7 mph (SW)    
Max Wind Speed 31 mph    
Max Gust Speed 39 mph    
Visibility 10 miles    
Events Rain    
T = Trace of Precipitation, MM = Missing Value Source: NWS Daily Summary

Daily Weather History Graph

Daily Weather History Graph

Search for Another Location

Airport or City:

Trip Planner

Search our weather history database for the weather conditions in past years. The results will help you decide how hot, cold, wet, or windy it might be!

Date:

Astronomy

Jun. 18, 2013 Rise Set
Actual Time 6:13 AM EDT 8:38 PM EDT
Civil Twilight 5:44 AM EDT 9:07 PM EDT
Nautical Twilight 5:08 AM EDT 9:43 PM EDT
Astronomical Twilight 4:28 AM EDT 10:22 PM EDT
Moon 3:31 PM EDT (6/18) 2:08 AM EDT (6/18)
Length of Visible Light 15h 23m
Length of Day
14h 24m
Waxing Gibbous, 70% of the Moon is Illuminated
Jun 18
Waxing Gibbous
Jun 23
Full
Jun 30
Last Quarter
Jul 8
New
Jul 15
First Quarter

Hourly Weather History & Observations

Time (EDT) Temp. Heat Index Dew Point Humidity Pressure Visibility Wind Dir Wind Speed Gust Speed Precip Events Conditions
12:56 AM 72.0 °F - 69.1 °F 91% 29.98 in 10.0 mi SW 9.2 mph - 0.00 in   Mostly Cloudy
1:56 AM 73.0 °F - 70.0 °F 90% 29.93 in 10.0 mi South 4.6 mph - 0.00 in   Mostly Cloudy
2:34 AM 73.4 °F - 69.8 °F 88% 29.91 in 10.0 mi Calm Calm - N/A   Partly Cloudy
2:56 AM 72.0 °F - 70.0 °F 93% 29.91 in 10.0 mi SSW 4.6 mph - N/A   Mostly Cloudy
3:09 AM 71.6 °F - 69.8 °F 94% 29.92 in 10.0 mi SW 3.5 mph - N/A   Scattered Clouds
3:35 AM 71.6 °F - 69.8 °F 94% 29.92 in 10.0 mi Calm Calm - N/A   Mostly Cloudy
3:56 AM 72.0 °F - 70.0 °F 93% 29.91 in 10.0 mi SSE 4.6 mph - N/A   Overcast
4:56 AM 72.0 °F - 70.0 °F 93% 29.92 in 10.0 mi SW 3.5 mph - N/A   Overcast
5:36 AM 71.6 °F - 69.8 °F 94% 29.92 in 10.0 mi SW 3.5 mph - N/A   Scattered Clouds
5:56 AM 71.1 °F - 70.0 °F 96% 29.92 in 10.0 mi SSW 4.6 mph - N/A   Mostly Cloudy
6:56 AM 72.0 °F - 70.0 °F 93% 29.94 in 10.0 mi Calm Calm - N/A   Mostly Cloudy
7:56 AM 73.0 °F - 70.0 °F 90% 29.95 in 10.0 mi SSW 5.8 mph - N/A   Mostly Cloudy
8:56 AM 75.9 °F - 70.0 °F 82% 29.95 in 10.0 mi SSW 8.1 mph - N/A   Scattered Clouds
9:54 AM 80.6 °F 84.6 °F 71.6 °F 74% 29.96 in 10.0 mi WSW 12.7 mph - N/A   Mostly Cloudy
9:56 AM 80.1 °F 83.6 °F 71.1 °F 74% 29.95 in 10.0 mi WSW 13.8 mph - N/A   Mostly Cloudy
10:33 AM 80.6 °F 84.6 °F 71.6 °F 74% 29.95 in 10.0 mi SW 10.4 mph - N/A   Mostly Cloudy
10:56 AM 80.1 °F 83.6 °F 71.1 °F 74% 29.92 in 10.0 mi WSW 8.1 mph - N/A   Mostly Cloudy
11:56 AM 82.0 °F 86.3 °F 71.1 °F 69% 29.94 in 10.0 mi WSW 11.5 mph - N/A   Scattered Clouds
12:56 PM 79.0 °F - 73.0 °F 82% 29.91 in 10.0 mi SW 6.9 mph - 0.01 in Rain Light Rain
1:56 PM 82.0 °F 86.7 °F 72.0 °F 71% 29.90 in 10.0 mi WSW 9.2 mph - 0.00 in   Mostly Cloudy
2:56 PM 87.1 °F 95.4 °F 73.9 °F 65% 29.87 in 10.0 mi SW 9.2 mph 20.7 mph N/A   Scattered Clouds
3:56 PM 88.0 °F 95.6 °F 73.0 °F 61% 29.86 in 9.0 mi SSW 16.1 mph 20.7 mph N/A   Mostly Cloudy
4:56 PM 82.0 °F 86.3 °F 71.1 °F 69% 29.84 in 10.0 mi SSW 15.0 mph - N/A   Scattered Clouds
5:56 PM 82.0 °F 86.7 °F 72.0 °F 71% 29.84 in 10.0 mi WSW 8.1 mph - N/A   Mostly Cloudy
6:56 PM 82.0 °F 86.7 °F 72.0 °F 71% 29.82 in 10.0 mi SSW 4.6 mph - N/A   Mostly Cloudy
7:56 PM 81.0 °F 85.8 °F 73.0 °F 77% 29.84 in 10.0 mi SW 5.8 mph - N/A   Mostly Cloudy
8:56 PM 80.1 °F 83.8 °F 72.0 °F 76% 29.84 in 10.0 mi SW 6.9 mph - N/A   Scattered Clouds
9:56 PM 75.9 °F - 66.9 °F 74% 29.86 in 10.0 mi WSW 13.8 mph - 0.00 in Rain Light Rain
10:56 PM 72.0 °F - 70.0 °F 93% 29.89 in 9.0 mi Calm Calm - 0.02 in Rain Light Rain
11:56 PM 72.0 °F - 71.1 °F 97% 29.89 in 10.0 mi SSW 3.5 mph - 0.00 in   Mostly Cloudy